DLH8HT EDDM-EDDF

Flight info

Callsign DLH8HT
Flight time 0h 33m
Altitude 24000
Route GIVMI1N GIVMI Y101 ERNAS T161 DEBHI DEBHI1B
Aircraft A320/M-SDE3FGHIRWY/LB1

Departure

Time 2026-05-06 09:43
Airport Munich Airport (EDDM)

Arrival

Time 2026-05-06 10:17
Airport Frankfurt Main Airport (EDDF)
Time Latitude Longitude Altitude Speed Heading
2026-05-06 08:43 48.35247 11.79768 1467 ft 0 kts 84°
2026-05-06 09:27 48.35246 11.79750 1460 ft 2 kts 83°
2026-05-06 09:27 48.35242 11.79713 1459 ft 1 kts 78°
2026-05-06 09:28 48.35235 11.79671 1459 ft 4 kts 66°
2026-05-06 09:28 48.35222 11.79641 1458 ft 3 kts 31°
2026-05-06 09:28 48.35211 11.79634 1458 ft 1 kts 353°
2026-05-06 09:31 48.35239 11.79629 1460 ft 6 kts 353°
2026-05-06 09:31 48.35295 11.79619 1465 ft 11 kts 353°
2026-05-06 09:31 48.35371 11.79606 1457 ft 12 kts 353°
2026-05-06 09:31 48.35453 11.79592 1465 ft 12 kts 353°
2026-05-06 09:32 48.35535 11.79578 1463 ft 13 kts 354°
2026-05-06 09:32 48.35631 11.79562 1466 ft 14 kts 353°
2026-05-06 09:32 48.35737 11.79543 1467 ft 16 kts 353°
2026-05-06 09:32 48.35857 11.79522 1463 ft 18 kts 353°
2026-05-06 09:33 48.35992 11.79499 1466 ft 19 kts 353°
2026-05-06 09:33 48.36127 11.79475 1462 ft 19 kts 353°
2026-05-06 09:33 48.36218 11.79541 1468 ft 17 kts 79°
2026-05-06 09:33 48.36232 11.79726 1468 ft 19 kts 84°
2026-05-06 09:34 48.36249 11.79929 1465 ft 20 kts 83°
2026-05-06 09:34 48.36266 11.80148 1462 ft 22 kts 83°
2026-05-06 09:34 48.36284 11.80390 1464 ft 24 kts 83°
2026-05-06 09:34 48.36303 11.80640 1467 ft 25 kts 84°
2026-05-06 09:35 48.36324 11.80908 1460 ft 26 kts 84°
2026-05-06 09:35 48.36344 11.81176 1467 ft 25 kts 83°
2026-05-06 09:35 48.36277 11.81283 1467 ft 17 kts 171°
2026-05-06 09:35 48.36253 11.81389 1464 ft 11 kts 86°
2026-05-06 09:36 48.36261 11.81517 1467 ft 14 kts 84°
2026-05-06 09:36 48.36273 11.81687 1466 ft 18 kts 83°
2026-05-06 09:36 48.36295 11.81895 1458 ft 21 kts 62°
2026-05-06 09:36 48.36382 11.81985 1463 ft 10 kts 332°
2026-05-06 09:37 48.36398 11.81871 1466 ft 16 kts 266°
2026-05-06 09:37 48.36384 11.81685 1466 ft 19 kts 264°
2026-05-06 09:37 48.36368 11.81477 1467 ft 21 kts 262°
2026-05-06 09:37 48.36349 11.81253 1467 ft 22 kts 263°
2026-05-06 09:38 48.36332 11.81011 1467 ft 24 kts 263°
2026-05-06 09:38 48.36314 11.80780 1462 ft 21 kts 263°
2026-05-06 09:38 48.36297 11.80556 1466 ft 23 kts 264°
2026-05-06 09:38 48.36279 11.80311 1458 ft 25 kts 263°
2026-05-06 09:39 48.36258 11.80046 1468 ft 25 kts 263°
2026-05-06 09:39 48.36237 11.79780 1460 ft 27 kts 263°
2026-05-06 09:39 48.36218 11.79525 1464 ft 25 kts 263°
2026-05-06 09:39 48.36196 11.79252 1468 ft 27 kts 264°
2026-05-06 09:40 48.36176 11.78965 1458 ft 28 kts 263°
2026-05-06 09:40 48.36160 11.78771 1466 ft 26 kts 263°
2026-05-06 09:40 48.36118 11.78217 1463 ft 27 kts 263°
2026-05-06 09:41 48.36097 11.77963 1465 ft 23 kts 263°
2026-05-06 09:41 48.36082 11.77737 1467 ft 17 kts 273°
2026-05-06 09:41 48.36165 11.77740 1462 ft 17 kts 53°
2026-05-06 09:41 48.36244 11.77901 1462 ft 21 kts 53°
2026-05-06 09:42 48.36326 11.78065 1462 ft 17 kts 52°
2026-05-06 09:42 48.36386 11.78190 1461 ft 11 kts 72°
2026-05-06 09:42 48.36390 11.78223 1461 ft 0 kts 83°
2026-05-06 09:42 48.36390 11.78224 1461 ft 1 kts 83°
2026-05-06 09:43 48.36410 11.78489 1457 ft 64 kts 83°
2026-05-06 09:43 48.36488 11.79478 1464 ft 128 kts 83°
2026-05-06 09:43 48.36610 11.81051 1640 ft 163 kts 83°
2026-05-06 09:43 48.36743 11.82765 2435 ft 162 kts 83°
2026-05-06 09:44 48.36871 11.84464 3105 ft 169 kts 81°
2026-05-06 09:44 48.37402 11.86118 3461 ft 192 kts 43°
2026-05-06 09:44 48.38703 11.86898 3770 ft 218 kts
2026-05-06 09:44 48.40288 11.86862 4174 ft 243 kts 356°
2026-05-06 09:45 48.41979 11.86044 4694 ft 267 kts 325°
2026-05-06 09:45 48.43292 11.84031 5522 ft 276 kts 309°
2026-05-06 09:45 48.44551 11.81764 6490 ft 281 kts 309°
2026-05-06 09:45 48.45820 11.79507 7414 ft 285 kts 308°
2026-05-06 09:46 48.47119 11.77214 8380 ft 288 kts 308°
2026-05-06 09:46 48.48430 11.74905 9324 ft 291 kts 307°
2026-05-06 09:46 48.49759 11.72571 10192 ft 296 kts 308°
2026-05-06 09:46 48.51107 11.70200 11009 ft 301 kts 307°
2026-05-06 09:47 48.52480 11.67784 11822 ft 305 kts 307°
2026-05-06 09:47 48.53891 11.65297 12643 ft 310 kts 307°
2026-05-06 09:47 48.55291 11.62822 13445 ft 315 kts 307°
2026-05-06 09:47 48.56743 11.60250 14175 ft 320 kts 307°
2026-05-06 09:48 48.58200 11.57664 14654 ft 334 kts 306°
2026-05-06 09:48 48.59761 11.54885 14824 ft 357 kts 307°
2026-05-06 09:48 48.61405 11.51953 15123 ft 373 kts 307°
2026-05-06 09:48 48.63103 11.48938 15746 ft 378 kts 307°
2026-05-06 09:49 48.64842 11.45853 16475 ft 381 kts 306°
2026-05-06 09:49 48.66565 11.42794 17172 ft 384 kts 306°
2026-05-06 09:49 48.68330 11.39662 17901 ft 386 kts 306°
2026-05-06 09:49 48.70195 11.36680 18575 ft 394 kts 314°
2026-05-06 09:50 48.72405 11.34156 19120 ft 403 kts 322°
2026-05-06 09:50 48.74761 11.31784 19670 ft 407 kts 322°
2026-05-06 09:50 48.77122 11.29400 20209 ft 411 kts 322°
2026-05-06 09:50 48.79510 11.26977 20764 ft 415 kts 322°
2026-05-06 09:51 48.81920 11.24525 21294 ft 418 kts 322°
2026-05-06 09:51 48.84324 11.22007 21811 ft 420 kts 318°
2026-05-06 09:51 48.86569 11.19034 22306 ft 421 kts 313°
2026-05-06 09:51 48.88753 11.15992 22820 ft 425 kts 313°
2026-05-06 09:52 48.90934 11.12947 23329 ft 428 kts 312°
2026-05-06 09:52 48.93136 11.09871 23701 ft 431 kts 312°
2026-05-06 09:52 48.95347 11.06783 23805 ft 433 kts 312°
2026-05-06 09:52 48.97576 11.03673 23860 ft 437 kts 313°
2026-05-06 09:53 48.99818 11.00539 23822 ft 437 kts 313°
2026-05-06 09:53 49.02024 10.97447 23821 ft 436 kts 313°
2026-05-06 09:53 49.04279 10.94276 23851 ft 435 kts 313°
2026-05-06 09:53 49.06526 10.91111 23845 ft 435 kts 313°
2026-05-06 09:54 49.08748 10.87978 23837 ft 435 kts 313°
2026-05-06 09:54 49.10966 10.84846 23836 ft 435 kts 313°
2026-05-06 09:54 49.13188 10.81706 23850 ft 435 kts 313°
2026-05-06 09:54 49.15409 10.78563 23845 ft 435 kts 313°
2026-05-06 09:55 49.17622 10.75424 23841 ft 434 kts 313°
2026-05-06 09:55 49.19854 10.72251 23847 ft 434 kts 312°
2026-05-06 09:55 49.22006 10.69061 23830 ft 433 kts 310°
2026-05-06 09:55 49.24115 10.65783 23851 ft 432 kts 309°
2026-05-06 09:56 49.26189 10.62466 23877 ft 430 kts 309°
2026-05-06 09:56 49.28242 10.59139 23867 ft 429 kts 309°
2026-05-06 09:56 49.30295 10.55814 23860 ft 428 kts 310°
2026-05-06 09:56 49.32341 10.52525 23864 ft 427 kts 310°
2026-05-06 09:57 49.34398 10.49244 23857 ft 426 kts 310°
2026-05-06 09:57 49.36379 10.45877 23832 ft 422 kts 304°
2026-05-06 09:57 49.38061 10.42309 23533 ft 416 kts 301°
2026-05-06 09:57 49.39753 10.38634 22554 ft 420 kts 302°
2026-05-06 09:58 49.41408 10.35019 22255 ft 411 kts 301°
2026-05-06 09:58 49.43042 10.31432 22008 ft 408 kts 301°
2026-05-06 09:58 49.44663 10.27860 21583 ft 406 kts 301°
2026-05-06 09:58 49.46277 10.24299 21174 ft 404 kts 301°
2026-05-06 09:59 49.47889 10.20744 20767 ft 402 kts 301°
2026-05-06 09:59 49.49486 10.17221 20355 ft 401 kts 301°
2026-05-06 09:59 49.51055 10.13753 19948 ft 399 kts 301°
2026-05-06 09:59 49.52652 10.10216 19536 ft 397 kts 301°
2026-05-06 10:00 49.54220 10.06745 19131 ft 394 kts 302°
2026-05-06 10:00 49.55783 10.03282 18729 ft 392 kts 302°
2026-05-06 10:00 49.57349 9.99806 18331 ft 390 kts 302°
2026-05-06 10:00 49.58355 9.97569 18067 ft 389 kts 302°
2026-05-06 10:01 49.60416 9.92983 17504 ft 387 kts 302°
2026-05-06 10:01 49.61446 9.90686 17247 ft 385 kts 302°
2026-05-06 10:01 49.63469 9.86180 16717 ft 380 kts 302°
2026-05-06 10:01 49.65079 9.82982 16259 ft 379 kts 306°
2026-05-06 10:02 49.66765 9.79876 16017 ft 368 kts 307°
2026-05-06 10:02 49.67880 9.77879 15896 ft 361 kts 308°
2026-05-06 10:02 49.69528 9.74965 15544 ft 355 kts 308°
2026-05-06 10:02 49.71139 9.72110 15124 ft 352 kts 307°
2026-05-06 10:03 49.72754 9.69219 14689 ft 350 kts 307°
2026-05-06 10:03 49.74326 9.66377 14255 ft 347 kts 307°
2026-05-06 10:03 49.75887 9.63538 13837 ft 345 kts 306°
2026-05-06 10:03 49.77432 9.60718 13390 ft 343 kts 306°
2026-05-06 10:04 49.78967 9.57895 12934 ft 340 kts 306°
2026-05-06 10:04 49.80480 9.55101 12483 ft 337 kts 306°
2026-05-06 10:04 49.81972 9.52332 12076 ft 334 kts 306°
2026-05-06 10:04 49.83495 9.49467 11644 ft 330 kts 306°
2026-05-06 10:05 49.84937 9.46773 11222 ft 328 kts 309°
2026-05-06 10:05 49.86724 9.44562 10829 ft 331 kts 329°
2026-05-06 10:05 49.88770 9.43053 10698 ft 320 kts 332°
2026-05-06 10:05 49.90770 9.41590 10571 ft 308 kts 331°
2026-05-06 10:06 49.92675 9.40187 10453 ft 298 kts 331°
2026-05-06 10:06 49.94542 9.38811 10304 ft 288 kts 331°
2026-05-06 10:06 49.96344 9.37482 10039 ft 284 kts 331°
2026-05-06 10:06 49.98102 9.36181 9736 ft 283 kts 330°
2026-05-06 10:07 49.99890 9.34857 9421 ft 280 kts 331°
2026-05-06 10:07 50.01637 9.33547 9082 ft 279 kts 330°
2026-05-06 10:07 50.03373 9.32216 8738 ft 277 kts 330°
2026-05-06 10:07 50.05086 9.30893 8397 ft 275 kts 330°
2026-05-06 10:08 50.06751 9.29492 8192 ft 263 kts 319°
2026-05-06 10:08 50.07873 9.27412 8062 ft 244 kts 291°
2026-05-06 10:08 50.08468 9.25002 7790 ft 238 kts 285°
2026-05-06 10:08 50.08971 9.22567 7463 ft 235 kts 284°
2026-05-06 10:09 50.09461 9.20140 7199 ft 234 kts 284°
2026-05-06 10:09 50.09945 9.17728 6988 ft 234 kts 284°
2026-05-06 10:09 50.10424 9.15305 6748 ft 233 kts 284°
2026-05-06 10:09 50.10891 9.12880 6503 ft 233 kts 284°
2026-05-06 10:10 50.11353 9.10422 6255 ft 231 kts 284°
2026-05-06 10:10 50.11793 9.08069 6003 ft 230 kts 284°
2026-05-06 10:10 50.12241 9.05675 5743 ft 229 kts 284°
2026-05-06 10:10 50.12697 9.03300 5540 ft 228 kts 284°
2026-05-06 10:11 50.13174 9.00861 5353 ft 227 kts 282°
2026-05-06 10:11 50.13313 8.98504 5181 ft 222 kts 260°
2026-05-06 10:11 50.12876 8.96217 5002 ft 222 kts 249°
2026-05-06 10:11 50.12340 8.93945 4832 ft 223 kts 249°
2026-05-06 10:12 50.11809 8.91685 4706 ft 220 kts 248°
2026-05-06 10:12 50.11290 8.89469 4486 ft 216 kts 249°
2026-05-06 10:12 50.10777 8.87285 4203 ft 215 kts 249°
2026-05-06 10:12 50.10262 8.85095 3915 ft 214 kts 249°
2026-05-06 10:13 50.09749 8.82917 3615 ft 213 kts 248°
2026-05-06 10:13 50.09245 8.80778 3347 ft 213 kts 249°
2026-05-06 10:13 50.08736 8.78619 3053 ft 204 kts 248°
2026-05-06 10:13 50.08270 8.76640 2787 ft 185 kts 248°
2026-05-06 10:14 50.07843 8.74835 2551 ft 171 kts 248°
2026-05-06 10:14 50.07467 8.73126 2379 ft 168 kts 254°
2026-05-06 10:14 50.07275 8.71338 2250 ft 165 kts 260°
2026-05-06 10:14 50.07100 8.69628 2028 ft 150 kts 251°
2026-05-06 10:15 50.06765 8.68154 1840 ft 140 kts 248°
2026-05-06 10:15 50.06417 8.66768 1597 ft 135 kts 246°
2026-05-06 10:15 50.06094 8.65443 1441 ft 129 kts 248°
2026-05-06 10:15 50.05780 8.64078 1226 ft 130 kts 249°
2026-05-06 10:16 50.05470 8.62699 1004 ft 131 kts 248°
2026-05-06 10:16 50.05159 8.61416 814 ft 132 kts 248°
2026-05-06 10:16 50.04846 8.60073 623 ft 130 kts 245°
2026-05-06 10:16 50.04524 8.58745 427 ft 130 kts 248°
2026-05-06 10:17 50.04219 8.57475 372 ft 112 kts 248°
2026-05-06 10:17 50.04010 8.56592 363 ft 61 kts 249°
2026-05-06 10:17 50.03901 8.56136 364 ft 35 kts 250°
2026-05-06 10:17 50.03886 8.55843 362 ft 23 kts 280°
2026-05-06 10:18 50.03911 8.55663 369 ft 16 kts 304°
2026-05-06 10:18 50.03980 8.55670 365 ft 9 kts 59°
2026-05-06 10:18 50.04002 8.55756 367 ft 10 kts 70°
2026-05-06 10:18 50.04024 8.55848 369 ft 9 kts 70°
2026-05-06 10:19 50.04040 8.55915 367 ft 0 kts 69°
2026-05-06 10:20 50.04049 8.55945 366 ft 9 kts 59°
2026-05-06 10:20 50.04107 8.55967 365 ft 8 kts 339°
2026-05-06 10:20 50.04156 8.55936 367 ft 5 kts 339°
2026-05-06 10:20 50.04160 8.55933 366 ft 0 kts 339°
2026-05-06 10:21 50.04170 8.55927 368 ft 8 kts 339°
2026-05-06 10:21 50.04224 8.55924 364 ft 7 kts 22°
2026-05-06 10:21 50.04270 8.55961 364 ft 9 kts
2026-05-06 10:21 50.04315 8.55946 367 ft 10 kts 339°
2026-05-06 10:22 50.04376 8.55913 367 ft 9 kts 343°
2026-05-06 10:22 50.04441 8.55918 365 ft 10 kts 12°
2026-05-06 10:22 50.04505 8.55947 371 ft 9 kts 17°
2026-05-06 10:22 50.04560 8.55994 367 ft 12 kts 53°
2026-05-06 10:23 50.04589 8.56113 367 ft 11 kts 69°
2026-05-06 10:23 50.04616 8.56224 368 ft 11 kts 70°
2026-05-06 10:23 50.04640 8.56327 366 ft 10 kts 70°
2026-05-06 10:23 50.04663 8.56422 370 ft 9 kts 70°
2026-05-06 10:24 50.04684 8.56508 365 ft 8 kts 66°
2026-05-06 10:24 50.04715 8.56574 366 ft 7 kts 52°
2026-05-06 10:24 50.04735 8.56614 365 ft 1 kts 46°
2026-05-06 10:24 50.04756 8.56615 369 ft 3 kts 348°
2026-05-06 10:25 50.04782 8.56600 365 ft 4 kts 340°
2026-05-06 10:25 50.04805 8.56587 365 ft 3 kts 340°
2026-05-06 10:25 50.04807 8.56586 365 ft 0 kts 340°
2026-05-06 10:42 50.04403 8.56222 364 ft 0 kts 159°